Retour au catalogue

STARLINK-36092

ActifCommunicationsVLEO
NORAD 66869·PAYLOAD·🇺🇸 United States

Lancé Dec 2, 2025 depuis Cape Canaveral Space Force Station

Loading…

Prochains Passages (prochaines 24 heures)

TLE

FraisSource: CelesTrak SupGP

Époque: Sep 15, 2026, 03:26 UTC

1 66869C 25281X   26258.14354167  .00041027  00000+0  14855-2 0  2583
2 66869  43.0035 353.7555 0001654 265.4310 233.7800 15.27568381    12

Suivez STARLINK-36092 en temps réel avec AllMySat

Download on the App Store